EW7788 Weather Reports


Display with metric or nautical units.
time (UTC)temp
F
wind
direction
speed
MPH
gust
MPH
rain 1hr
in
rain 24hr
in
rain mn
in
humidity
%
barometer
mb
20260510174606 44 348 3.0 6.0 0.01 0.01 0.01 91 1031.2
20260510173003 44 348 3.0 5.0 0.00 0.00 0.00 91 1031.3
20260510171603 44 346 3.0 5.0 0.00 0.00 0.00 91 1031.3
20260510170005 45 355 4.0 6.0 0.00 0.00 0.00 91 1031.3
20260510164611 44 29 2.0 3.0 0.00 0.00 0.00 91 1031.3
20260510163004 44 29 2.0 4.0 0.00 0.00 0.00 91 1031.4
20260510161604 44 29 1.0 3.0 0.00 0.00 0.00 91 1031.5
20260510160004 44 29 1.0 3.0 0.00 0.00 0.00 90 1031.4
20260510154604 44 29 1.0 3.0 0.00 0.00 0.00 91 1031.4
20260510153005 44 29 0.0 4.0 0.00 0.00 0.00 90 1031.2
20260510151604 44 29 2.0 3.0 0.00 0.00 0.00 90 1031.2
20260510150003 45 29 2.0 5.0 0.00 0.00 0.00 90 1031.3
20260510143010 45 360 1.0 3.0 0.00 0.00 0.00 90 1031.4
20260510141609 46 360 2.0 3.0 0.00 0.00 0.00 90 1031.4
20260510134609 46 346 2.0 4.0 0.00 0.00 0.00 89 1031.4
20260510133003 46 13 2.0 3.0 0.00 0.00 0.00 89 1031.4
20260510131603 46 360 2.0 3.0 0.00 0.00 0.00 88 1031.4
20260510130020 46 360 1.0 3.0 0.00 0.00 0.00 88 1031.4
20260510124603 47 360 1.0 3.0 0.00 0.00 0.00 88 1031.4
20260510123005 47 360 1.0 4.0 0.00 0.00 0.00 87 1031.6
20260510121609 48 95 2.0 3.0 0.00 0.00 0.00 87 1031.6
20260510120002 48 95 0.0 2.0 0.00 0.00 0.00 86 1031.6
20260510114618 49 95 0.0 2.0 0.00 0.00 0.00 86 1031.6
20260510113003 49 95 0.0 2.0 0.00 0.00 0.00 86 1031.6
20260510111612 49 95 0.0 2.0 0.00 0.00 0.00 86 1031.4
20260510110005 50 95 1.0 4.0 0.00 0.00 0.00 85 1031.4
20260510104620 50 96 1.0 4.0 0.00 0.00 0.00 84 1031.4
20260510103003 51 107 1.0 3.0 0.00 0.00 0.00 84 1031.4
20260510101612 51 167 2.0 4.0 0.00 0.00 0.00 83 1031.4
20260510100004 51 150 2.0 5.0 0.00 0.00 0.00 83 1031.6
20260510094608 51 138 1.0 5.0 0.00 0.00 0.00 82 1031.5
20260510093004 52 107 2.0 5.0 0.00 0.00 0.00 82 1031.4
20260510090004 52 67 0.0 2.0 0.00 0.00 0.00 81 1031.2
20260510083010 52 67 0.0 2.0 0.00 0.00 0.00 81 1031.0
20260510081603 52 67 0.0 1.0 0.00 0.00 0.00 80 1030.7
20260510080004 53 67 1.0 7.0 0.00 0.00 0.00 81 1030.6
20260510074608 53 128 0.0 2.0 0.00 0.00 0.00 81 1030.5
20260510073006 53 136 0.0 2.0 0.00 0.00 0.00 81 1030.4
20260510071605 53 138 1.0 3.0 0.00 0.00 0.00 81 1030.3
20260510070013 53 123 1.0 4.0 0.00 0.00 0.00 80 1030.2
20260510064509 54 145 2.0 4.0 0.00 0.00 0.00 81 1030.1
20260510063003 54 183 2.0 4.0 0.00 0.00 0.00 81 1030.1
20260510061603 54 172 3.0 5.0 0.00 0.00 0.00 80 1030.1
20260510060004 55 157 5.0 8.0 0.00 0.00 0.00 79 1030.1
20260510054538 55 165 2.0 5.0 0.00 0.00 0.00 78 1030.0
20260510053035 56 161 5.0 10.0 0.00 0.00 0.00 77 1029.9
20260510051535 56 200 5.0 9.0 0.00 0.00 0.00 79 1029.8
20260510050008 55 75 0.0 3.0 0.00 0.00 0.00 79 1029.8
20260510044612 55 263 1.0 7.0 0.00 0.00 0.00 80 1029.8
20260510021515 54 196 3.0 7.0 0.00 0.00 0.00 81 1030.4
20260510011530 53 273 1.0 5.0 0.00 0.00 0.00 81 1031.2
20260510001513 52 224 0.0 5.0 0.00 0.00 0.00 85 1031.1
20260510000004 51 207 0.0 4.0 0.00 0.00 0.00 88 1031.1
20260509234608 50 274 0.0 4.0 0.00 0.00 0.00 90 1031.1
20260509233011 50 269 1.0 3.0 0.00 0.00 0.00 92 1031.2
20260509231506 50 269 1.0 3.0 0.00 0.00 0.00 92 1031.1
20260509230012 50 269 0.0 3.0 0.00 0.00 0.00 92 1031.1
20260509224605 50 269 0.0 3.0 0.00 0.01 0.00 91 1031.1
20260509223006 50 269 0.0 3.0 0.00 0.01 0.00 92 1031.0
20260509221605 49 269 1.0 3.0 0.00 0.01 0.00 91 1030.8
20260509220006 49 269 0.0 4.0 0.00 0.01 0.00 91 1030.6
20260509213011 49 269 2.0 3.0 0.00 0.01 0.00 91 1030.0
20260509211504 49 269 1.0 4.0 0.00 0.01 0.00 91 1029.8
20260509210012 49 269 2.0 4.0 0.00 0.01 0.00 91 1029.7
20260509204508 49 269 1.0 3.0 0.00 0.02 0.00 91 1029.6
20260509203007 49 269 1.0 3.0 0.00 0.02 0.00 91 1029.5
20260509201605 50 286 1.0 5.0 0.00 0.02 0.00 91 1029.4
20260509200012 50 226 3.0 7.0 0.00 0.02 0.00 91 1029.3
20260509194604 50 240 2.0 7.0 0.00 0.02 0.00 90 1029.2
20260509193011 50 218 3.0 5.0 0.00 0.02 0.00 90 1029.1
20260509191504 50 23 2.0 7.0 0.00 0.02 0.00 89 1028.9
20260509190005 50 292 0.0 2.0 0.00 0.02 0.00 89 1028.7
20260509184504 50 292 0.0 3.0 0.00 0.02 0.00 88 1028.4
20260509183004 50 292 1.0 2.0 0.00 0.02 0.00 89 1028.3
20260509181606 51 292 1.0 3.0 0.00 0.02 0.00 89 1028.1
20260509180012 51 292 1.0 4.0 0.00 0.02 0.00 89 1028.1